Weather History for Phoenix, AZ

Change the Weather History Date:

Friday, February 15, 2013

  Actual Average Record
Temperature  
Mean Temperature 63 °F 60 °F  
Max Temperature 77 °F 71 °F 86 °F (2014)
Min Temperature 48 °F 49 °F 26 °F (1949)
Degree Days  
Heating Degree Days 2 6  
Month to date heating degree days 103 98  
Since 1 July heating degree days 735 768  
Cooling Degree Days 0 0  
Month to date cooling degree days 2 0  
Year to date cooling degree days 7 2  
Growing Degree Days 14 (Base 50)    
Moisture  
Dew Point 20 °F    
Average Humidity 31    
Maximum Humidity 52    
Minimum Humidity 9    
Precipitation  
Precipitation 0.00 in 0.03 in 0.79 in (1980)
Month to date precipitation 0.08 0.44  
Year to date precipitation 1.47 1.35  
Snow  
Snow 0.00 in - - ()
Month to date snowfall 0.0  
Year to date snowfall 0.0  
Since 1 July snowfall 0.0  
Snow Depth 0.00 in    
Sea Level Pressure  
Sea Level Pressure 30.16 in    
Wind  
Wind Speed 5 mph (NE)    
Max Wind Speed 14 mph    
Max Gust Speed 21 mph    
Visibility 10 miles    
Events      
T = Trace of Precipitation, MM = Missing Value Source: NWS Daily Summary

Daily Weather History Graph

Daily Weather History Graph

Search for Another Location

Airport:

Trip Planner

Search our weather history database for the weather conditions in past years. The results will help you decide how hot, cold, wet, or windy it might be!

Date:

Astronomy

Feb. 15, 2013 Rise Set
Actual Time 7:11 AM MST 6:13 PM MST
Civil Twilight 6:46 AM MST 6:38 PM MST
Nautical Twilight 6:17 AM MST 7:07 PM MST
Astronomical Twilight 5:48 AM MST 7:36 PM MST
Moon 10:09 AM MST (2/15) 11:56 PM MST (2/15)
Length of Visible Light 11h 52m
Length of Day
11h 01m
Waxing Crescent, 31% of the Moon is Illuminated
Feb 15
Waxing Crescent
Feb 17
First Quarter
Feb 25
Full
Mar 4
Last Quarter
Mar 11
New

Hourly Weather History & Observations

Time (MST) Temp. Dew Point Humidity Pressure Visibility Wind Dir Wind Speed Gust Speed Precip Events Conditions
12:51 AM 54.0 °F 32.0 °F 43% 30.12 in 10.0 mi Calm Calm - N/A   Partly Cloudy
1:51 AM 52.0 °F 33.1 °F 49% 30.12 in 10.0 mi Calm Calm - N/A   Partly Cloudy
2:51 AM 50.0 °F 33.1 °F 52% 30.13 in 10.0 mi Calm Calm - N/A   Partly Cloudy
3:51 AM 52.0 °F 28.9 °F 41% 30.12 in 10.0 mi Calm Calm - N/A   Scattered Clouds
4:51 AM 53.1 °F 25.0 °F 34% 30.12 in 10.0 mi NE 4.6 mph - N/A   Scattered Clouds
5:51 AM 50.0 °F 27.0 °F 41% 30.13 in 10.0 mi Calm Calm - N/A   Mostly Cloudy
6:51 AM 53.1 °F 24.1 °F 32% 30.16 in 10.0 mi NNE 8.1 mph - N/A   Mostly Cloudy
7:51 AM 57.9 °F 19.0 °F 22% 30.17 in 10.0 mi NE 10.4 mph - N/A   Mostly Cloudy
8:51 AM 57.9 °F 19.9 °F 23% 30.19 in 10.0 mi ENE 10.4 mph - N/A   Scattered Clouds
9:51 AM 62.1 °F 21.0 °F 21% 30.21 in 10.0 mi ENE 11.5 mph - N/A   Mostly Cloudy
10:51 AM 64.9 °F 17.1 °F 16% 30.22 in 10.0 mi ENE 10.4 mph - N/A   Scattered Clouds
11:51 AM 68.0 °F 18.0 °F 15% 30.21 in 10.0 mi NE 5.8 mph - N/A   Partly Cloudy
12:51 PM 72.0 °F 17.1 °F 12% 30.19 in 10.0 mi Variable 6.9 mph - N/A   Partly Cloudy
1:51 PM 73.0 °F 17.1 °F 12% 30.16 in 10.0 mi North 5.8 mph - N/A   Partly Cloudy
2:51 PM 75.0 °F 17.1 °F 11% 30.14 in 10.0 mi Calm Calm - N/A   Partly Cloudy
3:51 PM 77.0 °F 16.0 °F 10% 30.12 in 10.0 mi Calm Calm - N/A   Partly Cloudy
4:51 PM 77.0 °F 15.1 °F 10% 30.11 in 10.0 mi Calm Calm - N/A   Partly Cloudy
5:51 PM 75.0 °F 15.1 °F 10% 30.12 in 10.0 mi Calm Calm - N/A   Scattered Clouds
6:51 PM 69.1 °F 21.0 °F 16% 30.14 in 10.0 mi WSW 3.5 mph - N/A   Scattered Clouds
7:51 PM 70.0 °F 19.0 °F 14% 30.15 in 10.0 mi North 10.4 mph - N/A   Scattered Clouds
8:51 PM 69.1 °F 15.1 °F 13% 30.18 in 10.0 mi NE 9.2 mph - N/A   Partly Cloudy
9:51 PM 68.0 °F 10.9 °F 11% 30.19 in 10.0 mi NE 11.5 mph - N/A   Partly Cloudy
10:51 PM 64.9 °F 12.0 °F 13% 30.21 in 10.0 mi NE 9.2 mph - N/A   Partly Cloudy
11:51 PM 60.1 °F 18.0 °F 20% 30.21 in 10.0 mi NE 3.5 mph - N/A   Partly Cloudy